Observations

BIA Manual Entry


Date Temp Humidity Rainfall Dew Point Wind Direction Wind Speed Wind Pressure Condition Visibility
2025-03-05 02:01:55 25 92 0.00 24 310 1.9 1009 Rain 10KM
2025-03-05 01:03:13 25 90 0.00 24 030 3.9 1009 Rain 10KM
2025-03-04 23:02:04 26 86 0.00 23 200 7.6 1010 Partly Cloudy (Night) 10KM
2025-03-04 22:00:22 26 87 0.00 24 210 9.5 1009 Partly Cloudy (Night) 10KM
2025-03-04 20:57:59 27 85 0.00 24 190 13.3 1009 Partly Cloudy (Night) 10KM
2025-03-04 20:00:18 27 83 0.00 24 190 5.7 1008 Partly Cloudy (Night) 10KM
2025-03-04 19:00:39 28 84 0.00 25 220 17.1 1007 Partly Cloudy (Night) 10KM
2025-03-04 17:58:54 28 81 0.00 25 220 11.4 1007 Distant showers 10KM
2025-03-04 17:00:44 29 81 0.0 25 240 9.5 1006 Partly Cloudy (Day) 15 km
2025-03-04 16:00:11 29 80 0.00 25 300 13.3 1006 Partly Cloudy (Day) 15 km
2025-03-04 14:59:20 30 74 0.00 25 280 19.0 1007 Partly Cloudy (Day) 15 km
2025-03-04 14:01:30 31 71 0.00 25 300 15.2 1007 Partly Cloudy (Day) 10 km
2025-03-04 12:59:37 31 68 25 320 15.2 1008 Partly Cloudy (Day) 20 KM
2025-03-04 11:58:26 30 65 24 280 7.6 1004 Partly Cloudy (Day) 20 KM
2025-03-04 10:59:08 31 68 24 230 7.6 1010 Partly Cloudy (Day) 20 KM
2025-03-04 10:00:08 30 76 0.0 25 250 9.5 1010 Cloudy 20KM
2025-03-04 09:02:05 29 79 25 240 9.5 1010 Cloudy 20KM
2025-03-04 08:03:16 26 90 0 24 190 7.6 1009 Cloudy 20 KM
2025-03-04 07:02:07 25 94 0 24 180 5.7 1009 Partly Cloudy (Day) 20 KM
2025-03-04 06:00:23 25 94 0 24 220 7.6 1007 Partly Cloudy (Night) 10 KM
2025-03-04 05:01:03 25 95 0 24 210 5.7 1007 Partly Cloudy (Night) 10 KM
2025-03-04 04:00:00 26 94 0 25 210 7.6 1007 Night Shower 10 KM
2025-03-04 03:01:34 26 94 0 25 230 5.7 1007 Partly Cloudy (Night) 10 KM
2025-03-04 01:00:34 27 93 0.00 25 210 7.6 1008 Cloudy 10 KM
2025-03-04 00:30:55 27 92 0.00 25 220 1.9 1008 Cloudy 10 KM